Hourly Data Report for October 17, 2013

All times are specified in Local Standard Time (LST). Add 1 hour to adjust for Daylight Saving Time where and when it is observed.

PENTICTON A
BRITISH COLUMBIA

49°27'45.000" N
119°36'08.000" W
344.40 m
1126146
71889
YYF

Download Data

Hourly Data (October 2013)
Hourly Data Report for October 17, 2013
Temp Definition
°C
Dew Point Temp Definition
°C
Rel Hum Definition
%
Wind Dir Definition
10's deg

Wind Spd Definition
km/h
Visibility Definition
km
Stn Press Definition
kPa
Hmdx Definition


Wind Chill Definition


Weather Definition


TIME
00:00 Legend Double Dagger 3.0 0.9 86 36 9 24.1 98.35     LegendNANA
01:00 Legend Double Dagger 2.4 0.6 88 34 3 24.1 98.35     Clear
02:00 Legend Double Dagger 2.3 0.4 87 36 11 24.1 98.36     LegendNANA
03:00 Legend Double Dagger 2.7 0.4 85 1 13 24.1 98.43     LegendNANA
04:00 Legend Double Dagger 1.7 0.2 90 34 9 24.1 98.45     Clear
05:00 Legend Double Dagger 2.0 0.1 87 34 10 24.1 98.49     LegendNANA
06:00 Legend Double Dagger 1.4 0.0 91 1 10 24.1 98.54     LegendNANA
07:00 Legend Double Dagger 2.1 0.6 90 34 9 24.1 98.55     Mainly Clear
08:00 Legend Double Dagger 7.7 4.5 80 36 11 24.1 98.62     LegendNANA
09:00 Legend Double Dagger 9.5 5.5 76 LegendMM LegendMM 24.1 98.63     LegendNANA
10:00 Legend Double Dagger 10.6 5.6 71 35 16 24.1 98.66     Mainly Clear
11:00 Legend Double Dagger 10.5 4.8 68 36 18 24.1 98.63     LegendNANA
12:00 Legend Double Dagger 12.3 4.8 60 35 18 24.1 98.57     LegendNANA
13:00 Legend Double Dagger 13.1 5.3 59 34 17 24.1 98.50     Clear
14:00 Legend Double Dagger 14.0 5.2 55 35 18 24.1 98.46     LegendNANA
15:00 Legend Double Dagger 13.8 5.0 55 34 18 24.1 98.44     LegendNANA
16:00 Legend Double Dagger 13.1 5.3 59 1 19 24.1 98.43     Clear
17:00 Legend Double Dagger 10.9 5.3 68 33 10 24.1 98.41     LegendNANA
18:00 Legend Double Dagger 5.8 3.0 82 35 7 24.1 98.42     LegendNANA
19:00 Legend Double Dagger 6.3 3.1 80 2 13 24.1 98.47     Clear
20:00 Legend Double Dagger 5.6 2.6 81 36 9 24.1 98.49     LegendNANA
21:00 Legend Double Dagger 5.0 1.7 79 36 15 24.1 98.49     LegendNANA
22:00 Legend Double Dagger 4.9 1.2 77 34 15 24.1 98.51     Clear
23:00 Legend Double Dagger 4.0 1.0 81 1 15 24.1 98.54     LegendNANA

Notes on Data Quality.

Legend

  • E = Estimated
  • M = Missing
  • NA = Not Available
  • ‡ = Partner data that is not subject to review by the National Climate Archives
Date modified: